QPF
0.00 0.00 0.00 0.00 0.00 0.00 0.00 0.00 0.00 0.00 0.00 0.00 0.00 0.00 0.00 0.00 0.00 0.00 0.00 0.00 0.00 0.00 0.00 0.00 0.00 0.00 0.00 0.00 0.01 0.00 0.02 0.02 0.02 0.01 0.01 0.00 0.00 0.00 0.00 0.00 0.01 0.00 0.00
0.00 0.00 0.00 0.00 0.00 0.00 0.00 0.00 0.00 0.00 0.00 0.00 0.00 0.00 0.00 0.00 0.00 0.00 0.00 0.00 0.00 0.00 0.00 0.00 0.00 0.00 0.00 0.00 0.00 0.00 0.02 0.02 0.01 0.00 0.00 0.00 0.00 0.00 0.00 0.00 0.00 0.00 0.00
0.00 0.00 0.00 0.00 0.00 0.00 0.00 0.00 0.00 0.00 0.00 0.00 0.00 0.00 0.00 0.00 0.00 0.00 0.00 0.00 0.01 0.01 0.01 0.00 0.00 0.01 0.01 0.01 0.00 0.00 0.01 0.02 0.00 0.00 0.00 0.01 0.01 0.00 0.00 0.00 0.00 0.00 0.00
0.00 0.00 0.00 0.00 0.00 0.00 0.00 0.00 0.00 0.00 0.00 0.00 0.00 0.00 0.00 0.00 0.00 0.00 0.00 0.01 0.01 0.02 0.02 0.02 0.02 0.02 0.02 0.01 0.00 0.01 0.03 0.03 0.00 0.00 0.01 0.01 0.02 0.03 0.00 0.00 0.00 0.00 0.00
0.00 0.00 0.00 0.00 0.00 0.00 0.00 0.00 0.00 0.00 0.00 0.00 0.00 0.00 0.00 0.00 0.00 0.00 0.00 0.01 0.01 0.01 0.02 0.02 0.01 0.01 0.01 0.00 0.00 0.01 0.05 0.04 0.01 0.00 0.01 0.01 0.02 0.06 0.01 0.00 0.00 0.00 0.00
0.00 0.00 0.00 0.00 0.00 0.00 0.00 0.00 0.00 0.00 0.00 0.00 0.00 0.00 0.00 0.00 0.00 0.00 0.00 0.01 0.01 0.01 0.01 0.01 0.01 0.00 0.00 0.00 0.00 0.02 0.06 0.05 0.02 0.01 0.02 0.03 0.02 0.05 0.03 0.00 0.00 0.00 0.00
0.00 0.00 0.00 0.00 0.00 0.00 0.00 0.00 0.00 0.00 0.00 0.00 0.00 0.00 0.00 0.00 0.00 0.00 0.01 0.01 0.01 0.00 0.00 0.00 0.00 0.00 0.00 0.00 0.00 0.01 0.03 0.02 0.01 0.01 0.01 0.02 0.01 0.03 0.02 0.00 0.00 0.00 0.00
0.00 0.00 0.00 0.00 0.00 0.00 0.00 0.00 0.00 0.00 0.00 0.00 0.00 0.00 0.00 0.00 0.00 0.00 0.01 0.01 0.01 0.00 0.00 0.00 0.00 0.00 0.00 0.00 0.00 0.01 0.01 0.00 0.00 0.00 0.01 0.01 0.01 0.03 0.02 0.00 0.00 0.00 0.00
0.00 0.00 0.00 0.00 0.00 0.00 0.00 0.00 0.00 0.00 0.00 0.00 0.00 0.00 0.00 0.00 0.00 0.00 0.01 0.01 0.01 0.01 0.00 0.00 0.00 0.00 0.00 0.00 0.00 0.00 0.01 0.00 0.00 0.00 0.00 0.00 0.01 0.03 0.03 0.01 0.00 0.00 0.00
0.00 0.00 0.00 0.00 0.00 0.00 0.00 0.00 0.00 0.00 0.00 0.00 0.00 0.00 0.00 0.00 0.00 0.00 0.00 0.00 0.01 0.01 0.01 0.01 0.00 0.00 0.00 0.00 0.00 0.00 0.00 0.00 0.00 0.00 0.00 0.00 0.01 0.03 0.03 0.02 0.00 0.00 0.00
0.00 0.00 0.00 0.00 0.00 0.00 0.00 0.00 0.00 0.00 0.00 0.00 0.00 0.00 0.00 0.00 0.00 0.00 0.00 0.00 0.00 0.01 0.01 0.01 0.00 0.00 0.00 0.00 0.00 0.00 0.00 0.00 0.00 0.00 0.00 0.00 0.01 0.04 0.06 0.05 0.01 0.00 0.00
0.00 0.00 0.00 0.00 0.00 0.00 0.00 0.00 0.01 0.01 0.01 0.01 0.01 0.01 0.01 0.00 0.00 0.00 0.00 0.00 0.01 0.01 0.01 0.00 0.00 0.00 0.00 0.00 0.00 0.00 0.00 0.00 0.00 0.00 0.00 0.00 0.02 0.04 0.07 0.05 0.01 0.00 0.00
0.00 0.00 0.00 0.00 0.00 0.00 0.00 0.00 0.00 0.01 0.02 0.03 0.03 0.04 0.06 0.05 0.02 0.00 0.00 0.00 0.01 0.01 0.00 0.00 0.00 0.00 0.00 0.00 0.00 0.00 0.00 0.00 0.00 0.00 0.00 0.00 0.02 0.05 0.07 0.06 0.03 0.01 0.00
0.00 0.00 0.00 0.00 0.00 0.00 0.00 0.00 0.00 0.00 0.02 0.04 0.06 0.08 0.09 0.09 0.06 0.03 0.02 0.01 0.01 0.00 0.00 0.00 0.00 0.00 0.00 0.00 0.00 0.00 0.00 0.00 0.00 0.00 0.00 0.00 0.00 0.02 0.05 0.06 0.04 0.01 0.00
0.00 0.00 0.00 0.00 0.00 0.00 0.00 0.00 0.00 0.00 0.01 0.02 0.02 0.03 0.04 0.04 0.04 0.05 0.04 0.03 0.01 0.01 0.00 0.00 0.00 0.00 0.00 0.00 0.00 0.00 0.00 0.00 0.00 0.00 0.00 0.00 0.00 0.01 0.02 0.04 0.03 0.01 0.00
0.00 0.00 0.00 0.00 0.00 0.00 0.00 0.00 0.00 0.00 0.00 0.00 0.01 0.01 0.01 0.01 0.01 0.01 0.01 0.01 0.00 0.00 0.00 0.00 0.00 0.00 0.00 0.00 0.00 0.00 0.00 0.00 0.00 0.01 0.01 0.01 0.00 0.00 0.01 0.03 0.04 0.02 0.01
0.00 0.00 0.00 0.00 0.00 0.00 0.00 0.00 0.00 0.00 0.00 0.00 0.00 0.00 0.00 0.00 0.00 0.00 0.00 0.00 0.00 0.00 0.00 0.00 0.00 0.00 0.00 0.00 0.00 0.00 0.01 0.01 0.02 0.04 0.04 0.02 0.01 0.00 0.00 0.03 0.05 0.06 0.04
0.00 0.00 0.00 0.00 0.00 0.00 0.00 0.00 0.00 0.00 0.00 0.00 0.00 0.00 0.00 0.00 0.00 0.00 0.00 0.00 0.00 0.00 0.00 0.00 0.00 0.00 0.00 0.01 0.01 0.01 0.02 0.03 0.04 0.07 0.10 0.07 0.04 0.02 0.01 0.01 0.06 0.13 0.14
0.00 0.00 0.00 0.00 0.00 0.00 0.00 0.00 0.00 0.00 0.00 0.00 0.00 0.00 0.00 0.00 0.00 0.00 0.00 0.00 0.00 0.01 0.01 0.01 0.00 0.00 0.01 0.01 0.01 0.02 0.02 0.02 0.03 0.05 0.09 0.11 0.08 0.06 0.04 0.02 0.03 0.10 0.18
0.00 0.00 0.00 0.00 0.00 0.00 0.00 0.00 0.00 0.00 0.00 0.00 0.00 0.00 0.00 0.00 0.00 0.00 0.00 0.00 0.00 0.01 0.01 0.01 0.01 0.01 0.01 0.01 0.01 0.01 0.01 0.02 0.03 0.04 0.06 0.10 0.12 0.11 0.09 0.07 0.04 0.04 0.09
0.00 0.00 0.00 0.00 0.00 0.00 0.00 0.00 0.00 0.00 0.00 0.00 0.00 0.00 0.00 0.00 0.00 0.00 0.00 0.00 0.00 0.00 0.01 0.01 0.01 0.01 0.01 0.01 0.00 0.00 0.00 0.00 0.01 0.02 0.04 0.06 0.11 0.17 0.19 0.17 0.13 0.09 0.08
0.00 0.00 0.00 0.00 0.00 0.00 0.00 0.00 0.00 0.00 0.00 0.00 0.00 0.00 0.00 0.00 0.00 0.00 0.00 0.00 0.00 0.00 0.00 0.00 0.00 0.00 0.00 0.00 0.01 0.01 0.00 0.00 0.00 0.00 0.01 0.03 0.06 0.13 0.19 0.24 0.25 0.21 0.15
0.00 0.00 0.00 0.00 0.00 0.00 0.00 0.00 0.00 0.00 0.00 0.00 0.00 0.00 0.00 0.00 0.00 0.00 0.00 0.00 0.00 0.00 0.00 0.00 0.00 0.00 0.00 0.00 0.00 0.01 0.00 0.00 0.00 0.00 0.00 0.01 0.03 0.06 0.11 0.17 0.22 0.23 0.21
0.00 0.00 0.00 0.00 0.00 0.00 0.00 0.00 0.00 0.00 0.00 0.00 0.00 0.00 0.00 0.00 0.00 0.00 0.00 0.00 0.00 0.00 0.00 0.00 0.00 0.00 0.00 0.00 0.00 0.00 0.00 0.00 0.00 0.00 0.00 0.00 0.00 0.01 0.03 0.07 0.11 0.15 0.17
0.00 0.00 0.00 0.00 0.00 0.00 0.00 0.00 0.00 0.00 0.00 0.00 0.00 0.00 0.00 0.00 0.00 0.00 0.00 0.00 0.01 0.01 0.01 0.01 0.00 0.00 0.00 0.00 0.00 0.00 0.00 0.00 0.00 0.00 0.00 0.00 0.00 0.00 0.01 0.02 0.03 0.04 0.06
0.00 0.00 0.00 0.00 0.00 0.00 0.00 0.00 0.00 0.00 0.00 0.00 0.00 0.00 0.00 0.00 0.00 0.00 0.00 0.01 0.01 0.01 0.01 0.01 0.01 0.01 0.00 0.00 0.00 0.00 0.00 0.00 0.00 0.00 0.00 0.00 0.00 0.00 0.00 0.00 0.01 0.01 0.01
MSLP
1012.82 1012.39 1012.10 1012.00 1012.07 1012.26 1012.50 1012.72 1012.87 1012.94 1012.93 1012.88 1012.84 1012.85 1012.91 1013.02 1013.15 1013.28 1013.36 1013.39 1013.38 1013.34 1013.30 1013.30 1013.35 1013.45 1013.57 1013.71 1013.81 1013.88 1013.90 1013.89 1013.86 1013.85 1013.87 1013.93 1014.01 1014.09 1014.17 1014.21 1014.21 1014.18 1014.14
1012.63 1012.24 1011.99 1011.93 1012.02 1012.22 1012.46 1012.67 1012.82 1012.88 1012.87 1012.85 1012.84 1012.88 1012.98 1013.12 1013.28 1013.40 1013.47 1013.48 1013.43 1013.36 1013.30 1013.28 1013.32 1013.41 1013.54 1013.66 1013.76 1013.82 1013.83 1013.82 1013.80 1013.80 1013.83 1013.91 1014.01 1014.12 1014.20 1014.25 1014.25 1014.22 1014.17
1012.26 1011.93 1011.76 1011.76 1011.91 1012.15 1012.42 1012.64 1012.80 1012.86 1012.87 1012.86 1012.88 1012.94 1013.06 1013.20 1013.35 1013.46 1013.50 1013.47 1013.39 1013.29 1013.21 1013.18 1013.21 1013.30 1013.43 1013.55 1013.65 1013.70 1013.72 1013.71 1013.70 1013.72 1013.77 1013.87 1014.00 1014.13 1014.24 1014.30 1014.32 1014.30 1014.26
1011.78 1011.54 1011.45 1011.54 1011.77 1012.08 1012.39 1012.65 1012.83 1012.91 1012.93 1012.93 1012.95 1013.01 1013.12 1013.25 1013.37 1013.45 1013.45 1013.39 1013.28 1013.15 1013.06 1013.03 1013.06 1013.16 1013.28 1013.41 1013.51 1013.57 1013.59 1013.59 1013.60 1013.63 1013.71 1013.84 1013.98 1014.13 1014.26 1014.35 1014.40 1014.40 1014.38
1011.30 1011.15 1011.16 1011.35 1011.66 1012.04 1012.41 1012.70 1012.90 1012.99 1013.01 1013.01 1013.02 1013.07 1013.16 1013.27 1013.35 1013.39 1013.36 1013.26 1013.13 1013.00 1012.91 1012.89 1012.93 1013.03 1013.17 1013.30 1013.40 1013.47 1013.49 1013.50 1013.52 1013.57 1013.66 1013.79 1013.96 1014.12 1014.27 1014.38 1014.45 1014.48 1014.50
1010.96 1010.87 1010.97 1011.24 1011.63 1012.06 1012.46 1012.78 1012.97 1013.07 1013.08 1013.07 1013.07 1013.11 1013.17 1013.24 1013.30 1013.30 1013.25 1013.14 1013.01 1012.89 1012.81 1012.80 1012.85 1012.97 1013.11 1013.24 1013.34 1013.41 1013.44 1013.45 1013.47 1013.52 1013.61 1013.74 1013.91 1014.07 1014.23 1014.36 1014.45 1014.52 1014.58
1010.86 1010.82 1010.97 1011.29 1011.71 1012.15 1012.55 1012.85 1013.03 1013.10 1013.10 1013.08 1013.07 1013.09 1013.14 1013.20 1013.23 1013.22 1013.16 1013.05 1012.93 1012.83 1012.77 1012.78 1012.85 1012.98 1013.12 1013.24 1013.34 1013.39 1013.41 1013.42 1013.43 1013.47 1013.56 1013.68 1013.82 1013.98 1014.13 1014.26 1014.38 1014.48 1014.58
1011.09 1011.06 1011.22 1011.53 1011.92 1012.32 1012.66 1012.90 1013.02 1013.06 1013.04 1013.01 1013.00 1013.01 1013.06 1013.12 1013.15 1013.14 1013.08 1012.99 1012.89 1012.82 1012.79 1012.82 1012.91 1013.04 1013.17 1013.28 1013.36 1013.39 1013.40 1013.39 1013.39 1013.41 1013.48 1013.57 1013.70 1013.83 1013.97 1014.10 1014.23 1014.36 1014.50
1011.68 1011.62 1011.73 1011.97 1012.27 1012.56 1012.79 1012.92 1012.96 1012.94 1012.89 1012.85 1012.84 1012.88 1012.94 1013.00 1013.05 1013.05 1013.01 1012.94 1012.88 1012.83 1012.83 1012.88 1012.97 1013.09 1013.21 1013.30 1013.36 1013.37 1013.35 1013.33 1013.31 1013.32 1013.36 1013.44 1013.53 1013.64 1013.76 1013.88 1014.02 1014.17 1014.34
1012.58 1012.47 1012.49 1012.61 1012.76 1012.88 1012.95 1012.94 1012.87 1012.77 1012.69 1012.64 1012.64 1012.70 1012.78 1012.86 1012.92 1012.94 1012.92 1012.87 1012.83 1012.81 1012.83 1012.89 1012.99 1013.10 1013.20 1013.26 1013.29 1013.28 1013.24 1013.20 1013.17 1013.17 1013.20 1013.26 1013.34 1013.43 1013.53 1013.65 1013.78 1013.95 1014.14
1013.71 1013.53 1013.44 1013.40 1013.37 1013.29 1013.16 1012.99 1012.79 1012.61 1012.48 1012.43 1012.44 1012.51 1012.61 1012.70 1012.77 1012.79 1012.78 1012.75 1012.72 1012.72 1012.76 1012.83 1012.92 1013.02 1013.10 1013.14 1013.14 1013.10 1013.05 1013.00 1012.97 1012.97 1013.00 1013.06 1013.13 1013.22 1013.31 1013.42 1013.56 1013.73 1013.93
1014.97 1014.72 1014.51 1014.31 1014.07 1013.78 1013.45 1013.11 1012.78 1012.52 1012.34 1012.27 1012.28 1012.36 1012.46 1012.55 1012.60 1012.61 1012.59 1012.56 1012.53 1012.54 1012.59 1012.67 1012.77 1012.85 1012.91 1012.92 1012.90 1012.84 1012.78 1012.73 1012.70 1012.71 1012.75 1012.82 1012.91 1013.00 1013.11 1013.22 1013.36 1013.54 1013.75
1016.25 1015.94 1015.62 1015.26 1014.84 1014.36 1013.85 1013.35 1012.90 1012.56 1012.34 1012.24 1012.24 1012.29 1012.36 1012.41 1012.43 1012.40 1012.35 1012.30 1012.28 1012.29 1012.35 1012.44 1012.53 1012.61 1012.65 1012.65 1012.60 1012.53 1012.45 1012.40 1012.38 1012.40 1012.47 1012.56 1012.67 1012.79 1012.91 1013.04 1013.20 1013.38 1013.59
1017.44 1017.10 1016.70 1016.22 1015.64 1015.01 1014.35 1013.72 1013.19 1012.78 1012.51 1012.37 1012.33 1012.34 1012.35 1012.34 1012.28 1012.20 1012.10 1012.02 1011.98 1012.00 1012.07 1012.16 1012.27 1012.34 1012.37 1012.35 1012.28 1012.19 1012.09 1012.03 1012.01 1012.05 1012.13 1012.25 1012.39 1012.53 1012.69 1012.85 1013.02 1013.22 1013.44
1018.48 1018.12 1017.68 1017.11 1016.44 1015.69 1014.94 1014.24 1013.64 1013.18 1012.87 1012.69 1012.58 1012.52 1012.44 1012.33 1012.18 1012.01 1011.85 1011.73 1011.68 1011.69 1011.77 1011.89 1012.00 1012.08 1012.10 1012.06 1011.97 1011.85 1011.73 1011.65 1011.63 1011.66 1011.75 1011.89 1012.05 1012.22 1012.40 1012.59 1012.79 1013.00 1013.24
1019.34 1018.98 1018.50 1017.89 1017.17 1016.38 1015.59 1014.86 1014.24 1013.76 1013.41 1013.17 1012.98 1012.81 1012.62 1012.39 1012.13 1011.86 1011.63 1011.46 1011.39 1011.41 1011.50 1011.63 1011.76 1011.84 1011.85 1011.80 1011.68 1011.53 1011.39 1011.28 1011.23 1011.24 1011.33 1011.46 1011.63 1011.82 1012.02 1012.23 1012.45 1012.69 1012.95
1020.01 1019.65 1019.17 1018.55 1017.83 1017.04 1016.25 1015.53 1014.92 1014.43 1014.05 1013.75 1013.48 1013.20 1012.88 1012.52 1012.13 1011.76 1011.45 1011.23 1011.13 1011.14 1011.24 1011.39 1011.52 1011.61 1011.63 1011.56 1011.42 1011.24 1011.06 1010.92 1010.83 1010.82 1010.87 1010.98 1011.14 1011.32 1011.53 1011.75 1011.99 1012.25 1012.53
1020.54 1020.18 1019.70 1019.08 1018.37 1017.62 1016.88 1016.20 1015.61 1015.13 1014.73 1014.38 1014.02 1013.63 1013.17 1012.68 1012.17 1011.69 1011.29 1011.02 1010.89 1010.89 1010.98 1011.13 1011.28 1011.37 1011.38 1011.31 1011.16 1010.96 1010.76 1010.59 1010.46 1010.41 1010.42 1010.50 1010.62 1010.78 1010.97 1011.19 1011.43 1011.70 1012.00
1021.00 1020.61 1020.11 1019.50 1018.82 1018.11 1017.43 1016.80 1016.26 1015.80 1015.39 1014.99 1014.55 1014.04 1013.47 1012.85 1012.22 1011.64 1011.16 1010.83 1010.65 1010.62 1010.70 1010.84 1010.98 1011.08 1011.10 1011.03 1010.88 1010.69 1010.48 1010.29 1010.14 1010.05 1010.02 1010.05 1010.13 1010.24 1010.40 1010.60 1010.83 1011.10 1011.41
1021.43 1020.99 1020.46 1019.85 1019.19 1018.52 1017.89 1017.33 1016.83 1016.39 1015.97 1015.53 1015.02 1014.43 1013.75 1013.02 1012.29 1011.61 1011.05 1010.64 1010.40 1010.32 1010.37 1010.48 1010.62 1010.71 1010.74 1010.70 1010.58 1010.41 1010.22 1010.04 1009.89 1009.78 1009.72 1009.70 1009.73 1009.80 1009.92 1010.07 1010.28 1010.54 1010.84
1021.88 1021.37 1020.79 1020.16 1019.50 1018.87 1018.28 1017.76 1017.31 1016.89 1016.47 1016.00 1015.44 1014.77 1014.01 1013.19 1012.37 1011.60 1010.95 1010.46 1010.15 1010.00 1009.99 1010.07 1010.17 1010.27 1010.32 1010.31 1010.24 1010.14 1010.00 1009.86 1009.74 1009.63 1009.56 1009.51 1009.50 1009.52 1009.58 1009.69 1009.86 1010.09 1010.38
1022.39 1021.79 1021.14 1020.47 1019.80 1019.17 1018.62 1018.13 1017.70 1017.30 1016.88 1016.39 1015.79 1015.08 1014.26 1013.38 1012.48 1011.63 1010.89 1010.31 1009.91 1009.67 1009.58 1009.60 1009.67 1009.77 1009.84 1009.89 1009.90 1009.87 1009.82 1009.76 1009.69 1009.62 1009.55 1009.49 1009.45 1009.43 1009.44 1009.50 1009.63 1009.82 1010.09
1022.92 1022.24 1021.53 1020.81 1020.12 1019.48 1018.93 1018.46 1018.05 1017.66 1017.23 1016.73 1016.12 1015.37 1014.52 1013.58 1012.62 1011.69 1010.87 1010.20 1009.69 1009.35 1009.17 1009.12 1009.15 1009.24 1009.35 1009.46 1009.56 1009.64 1009.69 1009.72 1009.73 1009.71 1009.68 1009.62 1009.57 1009.52 1009.50 1009.53 1009.61 1009.77 1010.00
1023.47 1022.72 1021.95 1021.19 1020.47 1019.83 1019.27 1018.80 1018.39 1017.99 1017.56 1017.05 1016.42 1015.66 1014.77 1013.80 1012.79 1011.80 1010.89 1010.11 1009.50 1009.06 1008.78 1008.66 1008.65 1008.74 1008.88 1009.06 1009.25 1009.44 1009.60 1009.73 1009.82 1009.87 1009.88 1009.85 1009.80 1009.75 1009.71 1009.71 1009.76 1009.89 1010.08
1023.99 1023.20 1022.40 1021.61 1020.87 1020.21 1019.64 1019.16 1018.74 1018.33 1017.89 1017.36 1016.72 1015.93 1015.02 1014.01 1012.95 1011.90 1010.91 1010.04 1009.33 1008.79 1008.43 1008.24 1008.20 1008.29 1008.47 1008.71 1008.98 1009.26 1009.52 1009.75 1009.92 1010.03 1010.08 1010.09 1010.06 1010.01 1009.97 1009.97 1010.01 1010.11 1010.28
1024.45 1023.67 1022.86 1022.07 1021.32 1020.65 1020.07 1019.57 1019.12 1018.68 1018.21 1017.66 1016.98 1016.17 1015.23 1014.18 1013.07 1011.96 1010.90 1009.95 1009.15 1008.53 1008.10 1007.87 1007.81 1007.90 1008.11 1008.41 1008.75 1009.11 1009.44 1009.74 1009.97 1010.13 1010.22 1010.26 1010.25 1010.23 1010.21 1010.21 1010.26 1010.36 1010.51
Thickness
5760 5762 5761 5759 5757 5755 5754 5753 5751 5750 5748 5747 5746 5745 5744 5742 5742 5742 5743 5743 5742 5742 5742 5741 5740 5740 5740 5739 5738 5737 5736 5736 5736 5736 5735 5735 5734 5734 5734 5735 5735 5734 5734
5762 5760 5758 5756 5754 5752 5751 5749 5747 5745 5744 5742 5741 5741 5740 5739 5738 5739 5739 5739 5739 5739 5739 5739 5738 5738 5737 5736 5736 5735 5734 5734 5734 5734 5733 5732 5732 5732 5731 5731 5732 5732 5732
5760 5758 5756 5754 5751 5749 5747 5746 5744 5742 5739 5737 5736 5736 5736 5735 5734 5735 5736 5736 5736 5736 5736 5736 5735 5734 5734 5733 5733 5733 5732 5731 5731 5731 5730 5730 5729 5729 5729 5728 5729 5729 5730
5758 5755 5753 5751 5749 5746 5744 5741 5739 5737 5735 5733 5732 5731 5731 5730 5730 5730 5731 5732 5732 5732 5732 5731 5731 5730 5730 5730 5730 5730 5730 5729 5729 5728 5727 5726 5726 5726 5726 5725 5725 5726 5726
5753 5751 5750 5748 5745 5742 5740 5737 5734 5732 5730 5728 5727 5727 5726 5725 5725 5725 5726 5727 5728 5727 5727 5727 5726 5726 5726 5726 5726 5726 5726 5726 5727 5725 5724 5724 5724 5724 5723 5723 5722 5722 5723
5747 5745 5744 5742 5740 5736 5733 5730 5728 5726 5725 5723 5722 5721 5721 5720 5719 5719 5720 5722 5722 5722 5722 5722 5721 5721 5721 5722 5722 5723 5723 5723 5724 5723 5722 5722 5722 5722 5721 5720 5719 5719 5719
5742 5739 5738 5736 5733 5731 5727 5724 5722 5720 5719 5718 5717 5716 5716 5715 5714 5714 5714 5715 5716 5716 5717 5717 5717 5717 5717 5718 5718 5719 5719 5720 5721 5721 5720 5719 5719 5720 5719 5718 5717 5716 5715
5737 5734 5732 5729 5727 5725 5723 5719 5717 5715 5713 5713 5712 5711 5710 5710 5709 5709 5709 5709 5710 5710 5711 5711 5712 5712 5712 5713 5714 5715 5715 5716 5717 5718 5717 5716 5716 5717 5717 5715 5714 5714 5713
5726 5724 5722 5720 5717 5716 5714 5712 5710 5708 5707 5706 5706 5705 5704 5703 5703 5703 5703 5703 5703 5703 5704 5705 5706 5707 5707 5707 5708 5709 5710 5711 5712 5713 5713 5713 5713 5714 5714 5713 5712 5711 5711
5712 5709 5707 5707 5706 5705 5704 5702 5701 5700 5700 5699 5699 5698 5698 5697 5696 5696 5697 5697 5697 5697 5697 5698 5699 5700 5701 5701 5702 5703 5704 5705 5707 5709 5709 5710 5710 5711 5711 5710 5709 5709 5708
5695 5695 5695 5695 5696 5697 5696 5695 5693 5693 5693 5692 5692 5691 5690 5690 5690 5689 5690 5690 5690 5691 5692 5693 5694 5694 5695 5695 5696 5697 5699 5700 5702 5704 5705 5706 5707 5707 5707 5706 5706 5706 5705
5678 5681 5683 5684 5685 5688 5690 5689 5687 5686 5685 5685 5686 5685 5684 5684 5684 5683 5684 5684 5684 5685 5687 5687 5688 5688 5689 5690 5691 5693 5694 5695 5697 5700 5701 5702 5702 5703 5703 5703 5702 5702 5702
5661 5665 5669 5671 5673 5675 5678 5678 5678 5678 5678 5678 5679 5679 5679 5678 5678 5677 5677 5678 5679 5680 5680 5681 5681 5682 5684 5685 5686 5688 5690 5691 5694 5696 5698 5699 5699 5699 5699 5699 5698 5698 5697
5648 5650 5654 5657 5660 5662 5664 5665 5667 5668 5669 5670 5671 5672 5672 5671 5671 5672 5672 5673 5673 5673 5674 5674 5675 5676 5678 5680 5682 5684 5685 5687 5689 5692 5694 5695 5696 5696 5696 5695 5695 5694 5694
5633 5636 5640 5643 5645 5647 5650 5651 5654 5656 5658 5660 5661 5662 5663 5663 5664 5664 5666 5666 5667 5667 5667 5668 5669 5670 5672 5674 5677 5679 5681 5683 5685 5687 5689 5690 5691 5692 5692 5692 5691 5691 5690
5617 5620 5625 5628 5628 5631 5634 5635 5637 5639 5643 5647 5650 5651 5652 5653 5654 5655 5656 5658 5659 5660 5661 5662 5663 5664 5665 5667 5670 5673 5675 5678 5680 5682 5683 5685 5686 5687 5687 5687 5687 5686 5686
5603 5605 5609 5612 5613 5615 5617 5618 5621 5623 5625 5629 5632 5636 5639 5641 5643 5644 5644 5646 5649 5651 5653 5654 5655 5656 5657 5660 5662 5666 5668 5671 5674 5676 5678 5679 5680 5680 5681 5682 5681 5681 5681
5592 5592 5593 5595 5596 5598 5599 5600 5602 5605 5607 5610 5613 5618 5622 5626 5630 5632 5633 5634 5637 5639 5641 5643 5644 5646 5648 5650 5653 5656 5660 5664 5667 5670 5671 5672 5673 5674 5674 5675 5675 5674 5674
5579 5578 5579 5579 5580 5581 5583 5584 5584 5586 5588 5590 5593 5597 5602 5608 5614 5618 5621 5623 5624 5626 5629 5631 5633 5634 5636 5639 5643 5646 5650 5654 5657 5661 5663 5664 5666 5667 5667 5667 5668 5668 5668
5566 5565 5565 5566 5566 5567 5568 5569 5570 5569 5569 5570 5573 5575 5579 5586 5593 5600 5606 5609 5611 5613 5615 5618 5619 5621 5624 5627 5631 5635 5638 5642 5646 5649 5652 5655 5656 5658 5659 5659 5659 5660 5661
5551 5550 5549 5549 5550 5550 5551 5552 5552 5551 5551 5551 5552 5554 5558 5563 5570 5577 5587 5593 5596 5597 5601 5604 5606 5607 5609 5612 5614 5618 5623 5629 5633 5637 5640 5643 5645 5647 5648 5649 5650 5651 5652
5529 5526 5526 5524 5525 5525 5527 5528 5529 5529 5530 5531 5534 5537 5539 5543 5549 5556 5564 5574 5580 5582 5585 5588 5591 5592 5594 5597 5598 5600 5602 5609 5617 5622 5626 5629 5632 5635 5637 5638 5639 5640 5642
5503 5500 5499 5498 5499 5500 5502 5503 5504 5507 5508 5511 5514 5518 5521 5524 5530 5536 5545 5554 5563 5567 5570 5572 5575 5577 5578 5580 5582 5584 5585 5590 5595 5602 5608 5613 5617 5621 5624 5627 5628 5629 5630
5476 5474 5472 5472 5472 5473 5473 5473 5472 5474 5477 5480 5483 5489 5496 5501 5508 5514 5523 5533 5542 5550 5554 5556 5559 5561 5563 5563 5565 5568 5571 5574 5577 5582 5588 5593 5599 5604 5609 5612 5614 5616 5617
5449 5448 5447 5447 5447 5446 5444 5442 5441 5441 5443 5447 5452 5459 5467 5475 5482 5489 5497 5508 5519 5528 5534 5537 5540 5542 5545 5547 5548 5550 5552 5555 5559 5564 5569 5573 5578 5583 5589 5594 5597 5599 5601
5424 5422 5421 5421 5420 5418 5416 5414 5413 5413 5415 5419 5422 5427 5435 5445 5454 5462 5468 5480 5493 5504 5511 5516 5519 5522 5524 5528 5530 5533 5536 5538 5540 5544 5548 5553 5557 5562 5568 5574 5578 5581 5584